[[{"header":{"parameterUnit":"m.s-1","parameterCategory":1,"la1":30.2991,"la2":30.254,"lo1":-89.0895,"lo2":-89.0444,"dy":0.0017,"dx":0.0017,"nx":28,"ny":28,"refTime":"2024-07-14T21:00:00:Z","depth":0,"parameterNumber":2,"parameterNumberName":"U-component_of_WINDS"},"data":[0,0,0,0,0,0,0,0,0,0,0,0,0,0,0,0,0,0,0,0,0,0,0,0,0,0,0,0,0,0,0,0,0,0,0,0,0,0,0,0,0,0,0,0,0,0,0,0,0,0,0,0,0,0,0,0,0,0,-0.4578,-0.4577,0,-0.4469,-0.4467,-0.4466,-0.441,-0.441,-0.441,-0.441,-0.4293,-0.429,-0.4287,0,0,0,0,0,0,0,0,0,0,0,0,0,-0.4734,-0.4732,-0.4579,-0.4577,-0.4576,-0.4469,-0.4467,-0.4466,-0.441,-0.441,-0.441,-0.441,-0.4294,-0.429,-0.4287,0,0,0,0,0,0,0,0,0,0,0,0,0,-0.465,-0.4731,-0.4579,-0.4535,-0.453,-0.4469,-0.4467,-0.4465,-0.441,-0.441,-0.441,-0.441,-0.4295,-0.4291,-0.4286,-0.4259,0,0,-0.4272,-0.427,0,0,0,0,0,0,0,0,-0.4655,-0.4644,-0.4543,-0.4538,-0.4532,-0.4453,-0.4479,-0.4396,-0.441,-0.4456,-0.441,-0.441,-0.4346,-0.4337,-0.4316,-0.4253,-0.4248,-0.4271,-0.4269,-0.4267,-0.4265,0,0,0,0,0,0,0,-0.466,-0.4648,-0.4535,-0.4542,-0.4535,-0.4519,-0.4507,-0.4463,-0.4402,-0.4452,-0.4447,-0.4435,-0.4343,-0.4321,-0.4313,-0.4246,-0.4272,-0.4268,-0.4265,-0.4263,-0.4152,-0.4152,0,0,0,0,0,0,-0.4674,-0.4654,-0.4538,-0.4532,-0.4595,-0.4517,-0.4503,-0.4479,-0.4403,-0.4391,-0.4436,-0.4433,-0.4329,-0.4319,-0.4309,-0.427,-0.4267,-0.4262,-0.426,-0.4152,-0.4152,-0.4152,0,0,0,0,0,0,-0.4678,-0.4664,-0.4543,-0.4591,-0.4575,-0.4514,-0.4487,-0.4476,-0.4455,-0.4391,-0.4379,-0.4425,-0.4329,-0.4315,-0.4271,-0.4265,-0.426,-0.4256,-0.4152,-0.4152,-0.4152,-0.4194,0,0,0,0,0,0,-0.4682,-0.4666,-0.4657,-0.4592,-0.4572,-0.4509,-0.4487,-0.4474,-0.4447,-0.4443,-0.4377,-0.4366,-0.4328,-0.4278,-0.4267,-0.4259,-0.4252,-0.4153,-0.4152,-0.4152,-0.4192,-0.4195,-0.4197,0,0,0,0,0,-0.4688,-0.4672,-0.4656,-0.4643,-0.456,-0.4509,-0.4497,-0.4455,-0.4447,-0.4436,-0.4394,-0.4368,-0.4268,-0.4274,-0.4261,-0.4251,-0.4153,-0.4152,-0.4152,-0.4191,-0.4194,-0.4197,0,0,0,0,0,0,-0.4736,-0.4663,-0.4645,-0.4607,-0.4565,-0.45,-0.4484,-0.4459,-0.4417,-0.4415,-0.4362,-0.4347,-0.4307,-0.4275,-0.4283,-0.4219,-0.4208,-0.4204,-0.4242,-0.4244,-0.4247,-0.4255,-0.4249,0,0,0,0,0,-0.4743,-0.471,-0.4647,-0.462,-0.4599,-0.4546,-0.4522,-0.4493,-0.4446,-0.4427,-0.4382,-0.4336,-0.4294,-0.4268,-0.4226,-0.4187,-0.4171,-0.4174,-0.4176,-0.4178,-0.4176,-0.4151,-0.4151,-0.415,-0.415,-0.415,0,0,-0.4756,-0.4711,-0.4693,-0.4628,-0.4592,-0.4556,-0.4531,-0.4495,-0.4467,-0.4421,-0.4377,-0.4342,-0.4287,-0.4245,-0.4225,-0.4217,-0.4172,-0.4178,-0.418,-0.4176,-0.4151,-0.4151,-0.4151,-0.415,-0.415,-0.415,0,0,-0.4761,-0.4725,-0.4698,-0.4662,-0.4607,-0.4571,-0.4565,-0.4503,-0.4478,-0.4433,-0.4397,-0.4363,-0.4292,-0.4254,-0.4225,-0.4214,-0.4188,-0.4202,-0.4213,-0.4189,-0.4189,-0.4189,-0.4183,-0.4182,-0.42,-0.42,-0.42,0,-0.4783,-0.473,-0.4687,-0.4652,-0.4624,-0.4581,-0.4552,-0.4519,-0.4453,-0.4433,-0.4426,-0.4335,-0.4295,-0.4243,-0.424,-0.4219,-0.4208,-0.4209,-0.4193,-0.4192,-0.4191,-0.4185,-0.4184,-0.4202,-0.4202,-0.4201,-0.4201,0,-0.4759,-0.4723,-0.4707,-0.4646,-0.4615,-0.4584,-0.4533,-0.4507,-0.448,-0.4445,-0.4398,-0.4348,-0.4295,-0.428,-0.4253,-0.4223,-0.422,-0.4204,-0.419,-0.4194,-0.4188,-0.4185,-0.4205,-0.4204,-0.4203,-0.4203,0,0,-0.4792,-0.4706,-0.4701,-0.4672,-0.4608,-0.4578,-0.4543,-0.4492,-0.447,-0.4426,-0.4394,-0.4334,-0.4318,-0.4286,-0.4254,-0.4233,-0.4226,-0.4219,-0.4217,-0.4221,-0.4187,-0.4199,-0.4198,-0.4208,-0.4207,-0.4207,-0.4191,0,-0.4787,-0.4725,-0.4684,-0.4637,-0.4602,-0.456,-0.4529,-0.4486,-0.4451,-0.4414,-0.4375,-0.4333,-0.4316,-0.4296,-0.4274,-0.4231,-0.4218,-0.4232,-0.4176,-0.4174,-0.419,-0.4194,-0.4207,-0.4195,-0.4189,-0.4188,-0.4188,0,-0.4773,-0.4731,-0.4681,-0.4619,-0.4603,-0.4577,-0.4525,-0.4491,-0.444,-0.4416,-0.4379,-0.4347,-0.4306,-0.4297,-0.4239,-0.425,-0.4224,-0.4199,-0.4197,-0.419,-0.4181,-0.4185,-0.419,-0.4188,-0.4184,-0.4184,-0.4184,0,-0.48,-0.473,-0.4691,-0.4667,-0.4595,-0.4577,-0.4546,-0.4495,-0.4466,-0.442,-0.4401,-0.4351,-0.4323,-0.4284,-0.4238,-0.4236,-0.4184,-0.4171,-0.4161,-0.4162,-0.4151,-0.4152,-0.4151,-0.4137,-0.4137,-0.4137,-0.4137,0,-0.4798,-0.4768,-0.4702,-0.4678,-0.4643,-0.4595,-0.4561,-0.4526,-0.448,-0.4447,-0.4408,-0.4377,-0.4318,-0.4279,-0.4243,-0.4199,-0.4187,-0.4165,-0.4156,-0.4168,-0.4171,-0.415,-0.4149,-0.4137,-0.4137,-0.4137,-0.4137,0,-0.4822,-0.4776,-0.473,-0.4666,-0.4649,-0.4626,-0.4569,-0.4543,-0.4506,-0.4464,-0.4451,-0.4392,-0.4345,-0.4295,-0.423,-0.4205,-0.4162,-0.415,-0.418,-0.4175,-0.4167,-0.4168,-0.4151,-0.4145,-0.4137,-0.4137,-0.4137,0,-0.4823,-0.4799,-0.4732,-0.4708,-0.4678,-0.4639,-0.4609,-0.456,-0.4531,-0.447,-0.4451,-0.44,-0.4357,-0.4282,-0.4232,-0.4182,-0.4167,-0.4164,-0.4159,-0.4172,-0.4165,-0.4167,-0.4163,-0.4166,-0.4167,-0.4167,-0.4167,0,-0.4829,-0.4807,-0.4768,-0.4719,-0.4685,-0.4644,-0.4602,-0.4584,-0.4526,-0.4494,-0.4446,-0.4413,-0.4346,-0.4296,-0.4239,-0.4204,-0.4175,-0.4169,-0.4164,-0.4176,-0.4194,-0.4183,-0.4184,-0.417,-0.4169,-0.4169,-0.4169,-0.4169,-0.484,-0.4817,-0.4766,-0.4722,-0.4685,-0.4646,-0.4618,-0.4577,-0.4537,-0.448,-0.4453,-0.4404,-0.435,-0.4272,-0.4238,-0.4197,-0.4189,-0.4181,-0.4179,-0.4178,-0.418,-0.4202,-0.4187,-0.4186,-0.4186,-0.4186,-0.4186,0,-0.4843,-0.4808,-0.4769,-0.4711,-0.4676,-0.4653,-0.4604,-0.4576,-0.4534,-0.4488,-0.4446,-0.4389,-0.434,-0.4286,-0.4233,-0.4211,-0.4196,-0.4198,-0.4199,-0.4191,-0.4191,-0.4201,-0.4211,-0.4211,-0.4211,-0.4211,-0.4211,-0.4211,-0.4841,-0.4799,-0.4772,-0.4711,-0.4675,-0.4628,-0.4602,-0.4565,-0.4528,-0.4466,-0.4426,-0.4391,-0.4341,-0.4284,-0.4237,-0.4222,-0.4204,-0.421,-0.4191,-0.4193,-0.4191,-0.4189,-0.4198,-0.4207,-0.4207,-0.4193,-0.4193,-0.4193]},{"header":{"parameterUnit":"m.s-1","parameterCategory":1,"la1":30.2991,"la2":30.254,"lo1":-89.0895,"lo2":-89.0444,"dy":0.0017,"dx":0.0017,"nx":28,"ny":28,"refTime":"2024-07-14T21:00:00:Z","depth":0,"parameterNumber":3,"parameterNumberName":"V-component_of_WINDS"},"data":[0,0,0,0,0,0,0,0,0,0,0,0,0,0,0,0,0,0,0,0,0,0,0,0,0,0,0,0,0,0,0,0,0,0,0,0,0,0,0,0,0,0,0,0,0,0,0,0,0,0,0,0,0,0,0,0,0,0,2.5175,2.5175,0,2.5191,2.5191,2.5191,2.5205,2.5206,2.5206,2.5206,2.522,2.522,2.522,0,0,0,0,0,0,0,0,0,0,0,0,0,2.5154,2.5155,2.5175,2.5175,2.5176,2.5191,2.5191,2.5191,2.5205,2.5206,2.5206,2.5206,2.522,2.522,2.522,0,0,0,0,0,0,0,0,0,0,0,0,0,2.5166,2.5155,2.5175,2.5185,2.5186,2.5191,2.5191,2.5191,2.5205,2.5206,2.5206,2.5206,2.522,2.522,2.522,2.5217,0,0,2.5221,2.5221,0,0,0,0,0,0,0,0,2.5165,2.5167,2.5183,2.5184,2.5185,2.5196,2.5189,2.52,2.5205,2.5198,2.5206,2.5206,2.5212,2.5213,2.5215,2.5217,2.5218,2.5221,2.5221,2.5222,2.5222,0,0,0,0,0,0,0,2.5164,2.5166,2.5181,2.5183,2.5184,2.5187,2.5189,2.5191,2.5203,2.5198,2.52,2.5201,2.5212,2.5215,2.5215,2.5218,2.5221,2.5221,2.5222,2.5222,2.5216,2.5216,0,0,0,0,0,0,2.5163,2.5165,2.5181,2.5182,2.5176,2.5187,2.5189,2.5192,2.5203,2.5205,2.5201,2.5202,2.5214,2.5215,2.5216,2.5211,2.5222,2.5222,2.5222,2.5217,2.5216,2.5216,0,0,0,0,0,0,2.5162,2.5164,2.518,2.5174,2.5176,2.5187,2.5191,2.5193,2.5195,2.5205,2.5207,2.5201,2.5214,2.5215,2.5216,2.5212,2.5222,2.5222,2.5217,2.5217,2.5216,2.5203,0,0,0,0,0,0,2.5161,2.5164,2.5163,2.5174,2.5176,2.5181,2.519,2.5193,2.5196,2.5197,2.5206,2.5208,2.5215,2.5216,2.5216,2.5213,2.5222,2.5217,2.5217,2.5216,2.5204,2.5202,2.52,0,0,0,0,0,2.5161,2.5159,2.5163,2.5165,2.5177,2.5181,2.5182,2.5191,2.5195,2.5195,2.5201,2.5207,2.5212,2.5216,2.5217,2.5213,2.5218,2.5217,2.5216,2.5204,2.5202,2.52,0,0,0,0,0,0,2.5148,2.5161,2.5166,2.5168,2.5173,2.5183,2.5183,2.5189,2.5193,2.5194,2.5204,2.5205,2.5204,2.5209,2.5212,2.5209,2.5216,2.5215,2.5206,2.5204,2.5203,2.5202,2.5223,0,0,0,0,0,2.5145,2.5149,2.5159,2.516,2.5162,2.5172,2.5174,2.518,2.5186,2.5189,2.5195,2.5199,2.5202,2.5203,2.5206,2.5204,2.5205,2.5202,2.52,2.5199,2.5198,2.5195,2.5193,2.5213,2.5213,2.5213,0,0,2.514,2.5147,2.5149,2.5157,2.5163,2.5164,2.5174,2.5176,2.5177,2.5189,2.519,2.5194,2.52,2.5198,2.5198,2.5202,2.5192,2.5198,2.5197,2.5197,2.5194,2.5192,2.519,2.5213,2.5213,2.5213,0,0,2.5131,2.5138,2.5138,2.5143,2.515,2.5156,2.5156,2.5165,2.5168,2.517,2.5177,2.5178,2.5183,2.5186,2.5188,2.5178,2.5184,2.5179,2.517,2.5167,2.5166,2.5164,2.5159,2.5158,2.5178,2.5178,2.5178,0,2.5123,2.5128,2.5137,2.5139,2.5141,2.5152,2.5151,2.5155,2.5162,2.5163,2.5168,2.5172,2.5177,2.5176,2.5173,2.5175,2.5174,2.5178,2.5165,2.5164,2.5163,2.5158,2.5157,2.5177,2.5177,2.5178,2.5178,0,2.5117,2.512,2.5119,2.5126,2.5129,2.5129,2.5138,2.5139,2.5144,2.5149,2.5148,2.5154,2.5158,2.5158,2.5163,2.5157,2.5158,2.5164,2.5171,2.516,2.5156,2.5154,2.5176,2.5177,2.5177,2.5177,0,0,2.5103,2.5113,2.5113,2.5115,2.5123,2.5125,2.5125,2.5128,2.5128,2.5133,2.5132,2.5134,2.5139,2.5141,2.5147,2.5144,2.5134,2.515,2.515,2.5146,2.5125,2.512,2.5118,2.5138,2.5137,2.5137,2.5124,0,2.5095,2.5096,2.5103,2.5102,2.5103,2.5112,2.5111,2.5115,2.5119,2.512,2.5124,2.5126,2.5132,2.5133,2.5131,2.5136,2.513,2.5137,2.5136,2.5135,2.5133,2.5116,2.5112,2.51,2.5123,2.5122,2.5122,0,2.5086,2.509,2.5088,2.5094,2.5095,2.5095,2.5097,2.5099,2.5102,2.5105,2.5107,2.5113,2.5111,2.5118,2.5115,2.512,2.5119,2.5121,2.5121,2.512,2.5128,2.5115,2.5096,2.5094,2.512,2.512,2.512,0,2.5074,2.5078,2.5078,2.508,2.5087,2.5086,2.5089,2.5093,2.5094,2.5095,2.5096,2.5097,2.5098,2.5098,2.5104,2.5108,2.5099,2.5107,2.5101,2.51,2.5099,2.5099,2.5079,2.5099,2.5099,2.5099,2.5099,0,2.5064,2.5063,2.5072,2.5072,2.5069,2.5077,2.5074,2.5078,2.5081,2.508,2.5087,2.5086,2.5093,2.5092,2.5096,2.5092,2.5093,2.5094,2.5095,2.5093,2.5093,2.5093,2.5094,2.5099,2.5099,2.5099,2.5099,0,2.5051,2.5057,2.5057,2.5063,2.5064,2.5062,2.5067,2.5066,2.507,2.5068,2.5069,2.5074,2.5073,2.5079,2.5079,2.5081,2.5075,2.5078,2.5074,2.5074,2.5067,2.5067,2.5046,2.5043,2.5066,2.5066,2.5066,0,2.5045,2.5044,2.5049,2.5049,2.5051,2.5052,2.5052,2.5059,2.5059,2.5061,2.506,2.5059,2.5059,2.5057,2.5061,2.506,2.5062,2.5055,2.5062,2.506,2.5061,2.506,2.506,2.5053,2.5053,2.5053,2.5053,0,2.5032,2.5034,2.5035,2.5036,2.5037,2.5038,2.504,2.5039,2.5046,2.5045,2.5045,2.5045,2.5044,2.5043,2.5043,2.5044,2.5049,2.505,2.5048,2.5046,2.5043,2.5043,2.5069,2.5051,2.5051,2.5051,2.5051,2.5051,2.5021,2.502,2.5023,2.5023,2.5025,2.5025,2.5024,2.5027,2.5027,2.5027,2.503,2.5028,2.5029,2.503,2.503,2.5028,2.5031,2.5029,2.5028,2.5028,2.5026,2.5044,2.5028,2.5028,2.5028,2.5028,2.5028,0,2.5008,2.501,2.501,2.5011,2.5011,2.5015,2.5017,2.5016,2.5014,2.5015,2.5014,2.5012,2.501,2.5013,2.5011,2.5008,2.501,2.5008,2.5008,2.5007,2.5024,2.5025,2.5006,2.5006,2.5006,2.5006,2.5006,2.5006,2.5001,2.4998,2.5,2.4998,2.4999,2.4998,2.4998,2.4998,2.4998,2.4996,2.4994,2.4996,2.4997,2.4995,2.4993,2.4993,2.4992,2.4988,2.4989,2.5004,2.5007,2.5009,2.501,2.4988,2.4988,2.4973,2.4973,2.4973]}]]